This is the latest recevied weather packets stored in our database for station/object KM6YFK-13. If no packets are shown the sender has not sent any weather packets the latest 10 day(s).
| Time | Temp. | Humidity | Pressure | Rain* | Wind** | Luminosity | Snow |
|---|---|---|---|---|---|---|---|
| 1777826608 | 22.78° C | 60% | 1019.1 hPa | 0 mm | - | 1116 W/m² | - |
| 1777826308 | 23.33° C | 59% | 1019.2 hPa | 0 mm | - | 896 W/m² | - |
| 1777826007 | 22.78° C | 60% | 1019.2 hPa | 0 mm | - | 1071 W/m² | - |
| 1777825710 | 22.78° C | 61% | 1019.3 hPa | 0 mm | - | 1052 W/m² | - |
| 1777825407 | 22.78° C | 63% | 1019.3 hPa | 0 mm | - | 1049 W/m² | - |
| 1777825108 | 22.22° C | 61% | 1019.3 hPa | 0 mm | - | 1034 W/m² | - |
| 1777824807 | 22.22° C | 62% | 1019.2 hPa | 0 mm | - | 586 W/m² | - |
| 1777824508 | 22.22° C | 63% | 1019.1 hPa | 0 mm | - | 703 W/m² | - |
| 1777824208 | 22.22° C | 63% | 1019.1 hPa | 0 mm | - | 1001 W/m² | - |
| 1777823907 | 22.22° C | 63% | 1019.2 hPa | 0 mm | - | 978 W/m² | - |
| 1777823608 | 22.22° C | 63% | 1019.1 hPa | 0 mm | - | 928 W/m² | - |
| 1777823308 | 21.67° C | 66% | 1019.2 hPa | 0 mm | - | 987 W/m² | - |
| 1777823007 | 21.67° C | 65% | 1019 hPa | 0 mm | - | 360 W/m² | - |
| 1777822708 | 21.67° C | 65% | 1018.9 hPa | 0 mm | - | 1091 W/m² | - |
| 1777822407 | 21.11° C | 66% | 1018.9 hPa | 0 mm | - | 470 W/m² | - |
| 1777822108 | 21.67° C | 67% | 1019 hPa | 0 mm | - | 320 W/m² | - |
| 1777821808 | 21.67° C | 68% | 1019 hPa | 0 mm | - | 463 W/m² | - |
| 1777821508 | 21.67° C | 68% | 1019.1 hPa | 0 mm | - | 327 W/m² | - |
| 1777821207 | 21.67° C | 67% | 1018.9 hPa | 0 mm | - | 742 W/m² | - |
| 1777820907 | 21.67° C | 67% | 1019 hPa | 0 mm | - | 799 W/m² | - |
| 1777820608 | 21.11° C | 68% | 1019 hPa | 0 mm | - | 865 W/m² | - |
| 1777820308 | 21.67° C | 68% | 1018.8 hPa | 0 mm | - | 331 W/m² | - |
| 1777820007 | 21.67° C | 66% | 1018.8 hPa | 0 mm | - | 668 W/m² | - |
| 1777819707 | 21.67° C | 66% | 1018.7 hPa | 0 mm | - | 775 W/m² | - |
| 1777819407 | 21.67° C | 67% | 1018.8 hPa | 0 mm | - | 550 W/m² | - |
* Rain latest hour (hover to see other rain measurements)
** Current wind speed in m/s (hover to see current wind gust speed)